Overview Statistics Trail Chart Weather Telemetry Raw packets
 

This is the latest recevied weather packets stored in our database for station/object LU3GHF-13. If no packets are shown the sender has not sent any weather packets the latest 10 day(s).

<< 34 35 36 37 38 39 40 >>
Time Temp. Humidity Pressure Rain* Wind** Luminosity Snow
1788080093 18.33° C 95% 1005.1 hPa - - - -
1788079464 18.33° C 95% 1004.5 hPa - - - -
1788078809 18.33° C 95% 1004.2 hPa - - - -
1788078192 18.33° C 95% 1004.3 hPa - - - -
1788077496 18.89° C 94% 1004 hPa - - - -
1788076856 19.44° C 93% 1003.9 hPa - - - -
1788076219 18.89° C 95% 1003.8 hPa - - - -
1788075585 18.89° C 94% 1004.1 hPa - - - -
1788074293 18.89° C 93% 1004.5 hPa - - - -
1788073679 19.44° C 93% 1004.4 hPa - - - -
1788073024 19.44° C 93% 1005 hPa - - - -
1788072394 19.44° C 93% 1005.2 hPa - - - -
1788071736 20° C 93% 1005.3 hPa - - - -
1788071104 20° C 92% 1005.5 hPa - - - -
1788070474 19.44° C 94% 1005.7 hPa - - - -
1788069869 20° C 93% 1005.7 hPa - - - -
1788069251 20° C 93% 1005.9 hPa - - - -
1788068593 20.56° C 91% 1005.9 hPa - - - -
1788067968 20.56° C 91% 1006.1 hPa - - - -
1788067337 20.56° C 91% 1006.2 hPa - - - -
1788066682 20.56° C 91% 1006.3 hPa - - - -
1788066052 20.56° C 91% 1006.1 hPa - - - -
1788065401 20.56° C 92% 1006.3 hPa - - - -
1788064760 20.56° C 91% 1006.2 hPa - - - -
1788064113 20.56° C 90% 1006.4 hPa - - - -

* Rain since midnight (hover to see other rain measurements)
** Current wind speed in m/s (hover to see current wind gust speed)